Weather History for Greenville, AL

Change the Weather History Date:

Tuesday, March 5, 2013

  Actual Average Record
Temperature  
Mean Temperature 56 °F -  
Max Temperature 73 °F 67 °F 85 °F (1955)
Min Temperature 37 °F 44 °F 18 °F (1978)
Degree Days  
Heating Degree Days 9    
Growing Degree Days 6 (Base 50)    
Moisture  
Dew Point 49 °F    
Average Humidity 76    
Maximum Humidity 93    
Minimum Humidity 53    
Precipitation  
Precipitation 0.15 in - - ()
Sea Level Pressure  
Sea Level Pressure 29.98 in    
Wind  
Wind Speed 7 mph (WSW)    
Max Wind Speed 20 mph    
Max Gust Speed 45 mph    
Visibility 9 miles    
Events Rain , Thunderstorm    
Averages and records for this station are not official NWS values.
T = Trace of Precipitation, MM = Missing Value Source: NWS Daily Summary

Daily Weather History Graph

Daily Weather History Graph

Search for Another Location

Airport:

Trip Planner

Search our weather history database for the weather conditions in past years. The results will help you decide how hot, cold, wet, or windy it might be!

Date:

Astronomy

Mar. 05, 2013 Rise Set
Actual Time 6:08 AM CST 5:47 PM CST
Civil Twilight 5:44 AM CST 6:11 PM CST
Nautical Twilight 5:15 AM CST 6:40 PM CST
Astronomical Twilight 4:47 AM CST 7:08 PM CST
Moon 1:04 AM CST (3/5) 11:41 AM CST (3/5)
Length of Visible Light 12h 27m
Length of Day
11h 38m
Last Quarter, 40% of the Moon is Illuminated
Mar 5
Last Quarter
Mar 11
New
Mar 19
First Quarter
Mar 27
Full
Apr 2
Last Quarter

Hourly Weather History & Observations

Time (CST) Temp. Windchill Dew Point Humidity Pressure Visibility Wind Dir Wind Speed Gust Speed Precip Events Conditions
12:56 AM 53.1 °F - 46.0 °F 77% 30.03 in 10.0 mi Calm Calm - N/A   Overcast
1:25 AM 51.8 °F - 46.4 °F 82% 30.03 in 10.0 mi SE 3.5 mph - N/A   Overcast
1:56 AM 52.0 °F - 46.0 °F 80% 30.03 in 10.0 mi Calm Calm - N/A   Overcast
2:56 AM 51.1 °F - 46.0 °F 83% 30.02 in 10.0 mi Calm Calm - N/A   Overcast
3:56 AM 50.0 °F - 46.0 °F 86% 30.01 in 10.0 mi SE 4.6 mph - N/A   Scattered Clouds
4:56 AM 51.1 °F - 46.0 °F 83% 30.01 in 10.0 mi Variable 3.5 mph - N/A   Overcast
5:56 AM 51.1 °F - 46.0 °F 83% 30.03 in 10.0 mi ESE 3.5 mph - N/A   Mostly Cloudy
6:56 AM 51.1 °F - 46.9 °F 86% 30.03 in 10.0 mi ESE 3.5 mph - N/A   Mostly Cloudy
7:56 AM 53.1 °F - 48.0 °F 83% 30.03 in 10.0 mi SSE 5.8 mph - N/A   Overcast
8:56 AM 57.0 °F - 51.1 °F 81% 30.04 in 10.0 mi South 4.6 mph - N/A   Overcast
9:56 AM 63.0 °F - 53.1 °F 70% 30.00 in 10.0 mi SW 11.5 mph 18.4 mph N/A   Overcast
10:56 AM 64.0 °F - 54.0 °F 70% 29.96 in 10.0 mi SSW 13.8 mph 19.6 mph N/A   Overcast
11:56 AM 70.0 °F - 55.0 °F 59% 29.92 in 10.0 mi SW 9.2 mph 21.9 mph N/A   Overcast
12:56 PM 72.0 °F - 55.0 °F 55% 29.89 in 10.0 mi SW 16.1 mph 25.3 mph N/A   Overcast
1:56 PM 73.0 °F - 55.0 °F 53% 29.86 in 10.0 mi SW 13.8 mph 28.8 mph 0.00 in   Mostly Cloudy
2:56 PM 72.0 °F - 55.0 °F 55% 29.83 in 10.0 mi SW 13.8 mph 29.9 mph N/A   Mostly Cloudy
3:11 PM 71.6 °F - 55.4 °F 57% 29.84 in 10.0 mi SW 15.0 mph 24.2 mph N/A Thunderstorm Thunderstorm
3:26 PM 64.4 °F - 55.4 °F 73% 29.90 in 3.0 mi WNW 19.6 mph 44.9 mph 0.04 in Rain Light Rain
3:30 PM 60.8 °F - 55.4 °F 82% 29.89 in 1.8 mi West 19.6 mph 44.9 mph 0.08 in Rain Heavy Rain
3:37 PM 60.8 °F - 55.4 °F 82% 29.89 in 3.0 mi WNW 16.1 mph 29.9 mph 0.10 in Rain Light Rain
3:49 PM 60.8 °F - 57.2 °F 88% 29.90 in 4.0 mi WNW 13.8 mph 23.0 mph 0.13 in Rain , Thunderstorm Light Thunderstorms and Rain
3:56 PM 60.1 °F - 57.0 °F 90% 29.91 in 7.0 mi WNW 10.4 mph 19.6 mph 0.14 in Rain , Thunderstorm Light Thunderstorms and Rain
4:06 PM 60.8 °F - 57.2 °F 88% 29.91 in 6.0 mi WNW 10.4 mph 17.3 mph 0.01 in Rain , Thunderstorm Light Thunderstorms and Rain
4:09 PM 60.8 °F - 57.2 °F 88% 29.91 in 9.0 mi WNW 9.2 mph 17.3 mph 0.01 in Rain Light Rain
4:34 PM 60.8 °F - 53.6 °F 77% 29.93 in 10.0 mi WNW 16.1 mph 23.0 mph 0.01 in   Mostly Cloudy
4:56 PM 60.1 °F - 51.1 °F 72% 29.94 in 10.0 mi WNW 13.8 mph 19.6 mph 0.01 in   Partly Cloudy
5:56 PM 55.0 °F - 46.9 °F 74% 29.99 in 10.0 mi WNW 15.0 mph 23.0 mph N/A   Clear
6:56 PM 48.9 °F - 39.0 °F 69% 30.05 in 10.0 mi NW 15.0 mph 28.8 mph N/A   Clear
7:56 PM 46.0 °F 41.0 °F 37.0 °F 71% 30.07 in 10.0 mi NW 10.4 mph - N/A   Clear
8:56 PM 45.0 °F 41.8 °F 36.0 °F 71% 30.09 in 10.0 mi Variable 5.8 mph - N/A   Clear
9:56 PM 43.0 °F 41.3 °F 36.0 °F 76% 30.10 in 10.0 mi WNW 3.5 mph - N/A   Clear
10:56 PM 39.9 °F - 36.0 °F 86% 30.09 in 10.0 mi Calm Calm - N/A   Clear
11:56 PM 37.9 °F - 36.0 °F 93% 30.08 in 10.0 mi Calm Calm - N/A   Clear